Stündliche Wetter Juárez

Heute, 3 März, Mittwoch

Zeit Temperatur Niederschläge Wind Luftdruck Luftfeuchtigkeit
00:00 +7°C° 0 mm 0 m/S 611 mmHg 69%
01:00 +7°C° 0 mm 0 m/S 611 mmHg 70%
02:00 +7°C° 0 mm 0 m/S 610 mmHg 70%
03:00 +7°C° 0 mm 0 m/S 611 mmHg 69%
04:00 +7°C° 0 mm 0 m/S 611 mmHg 68%
05:00 +7°C° 0 mm 0 m/S 611 mmHg 68%
06:00 +10°C° 0 mm 1 m/S 612 mmHg 56%
07:00 +13°C° 0 mm 1 m/S 614 mmHg 44%
08:00 +16°C° 0 mm 1 m/S 616 mmHg 32%
09:00 +20°C° 0 mm 1 m/S 616 mmHg 27%
10:00 +23°C° 0 mm 1 m/S 617 mmHg 21%
11:00 +25°C° 0 mm 1 m/S 618 mmHg 16%
12:00 +26°C° 0 mm 1 m/S 617 mmHg 14%
13:00 +27°C° 0 mm 2 m/S 617 mmHg 13%
14:00 +28°C° 0 mm 2 m/S 616 mmHg 11%
15:00 +28°C° 0 mm 3 m/S 616 mmHg 12%
16:00 +27°C° 0 mm 4 m/S 616 mmHg 13%
17:00 +27°C° 0 mm 5 m/S 615 mmHg 14%
18:00 +22°C° 0 mm 4 m/S 615 mmHg 23%
19:00 +19°C° 0 mm 3 m/S 614 mmHg 33%
20:00 +15°C° 0 mm 1 m/S 613 mmHg 42%
21:00 +14°C° 0 mm 1 m/S 613 mmHg 46%
22:00 +13°C° 0 mm 1 m/S 613 mmHg 50%
23:00 +11°C° 0 mm 0 m/S 613 mmHg 53%

Morgen, 4 März, Donnerstag

Zeit Temperatur Niederschläge Wind Luftdruck Luftfeuchtigkeit
00:00 +12°C° 0 mm 1 m/S 613 mmHg 52%
01:00 +12°C° 0 mm 1 m/S 613 mmHg 51%
02:00 +12°C° 0 mm 2 m/S 613 mmHg 50%
03:00 +12°C° 0 mm 2 m/S 613 mmHg 50%
04:00 +10°C° 0 mm 2 m/S 613 mmHg 51%
05:00 +10°C° 0 mm 2 m/S 612 mmHg 51%
06:00 +13°C° 0 mm 2 m/S 614 mmHg 44%
07:00 +16°C° 0 mm 1 m/S 615 mmHg 36%
08:00 +19°C° 0 mm 1 m/S 617 mmHg 29%
09:00 +22°C° 0 mm 1 m/S 617 mmHg 24%
10:00 +24°C° 0 mm 1 m/S 618 mmHg 19%
11:00 +27°C° 0 mm 1 m/S 618 mmHg 14%
12:00 +28°C° 0 mm 2 m/S 618 mmHg 12%
13:00 +29°C° 0 mm 3 m/S 617 mmHg 11%
14:00 +30°C° 0 mm 4 m/S 617 mmHg 9%
15:00 +30°C° 0 mm 5 m/S 617 mmHg 9%
16:00 +29°C° 0 mm 5 m/S 616 mmHg 10%
17:00 +29°C° 0 mm 6 m/S 616 mmHg 10%
18:00 +26°C° 0 mm 5 m/S 616 mmHg 13%
19:00 +22°C° 0 mm 4 m/S 615 mmHg 17%
20:00 +19°C° 0 mm 3 m/S 615 mmHg 20%
21:00 +18°C° 0 mm 2 m/S 614 mmHg 22%
22:00 +16°C° 0 mm 2 m/S 614 mmHg 25%
23:00 +15°C° 0 mm 1 m/S 614 mmHg 28%

übermorgen, 5 März, Freitag

Zeit Temperatur Niederschläge Wind Luftdruck Luftfeuchtigkeit
00:00 +14°C° 0 mm 1 m/S 613 mmHg 33%
01:00 +13°C° 0 mm 1 m/S 613 mmHg 39%
02:00 +12°C° 0 mm 1 m/S 612 mmHg 45%
03:00 +11°C° 0 mm 1 m/S 612 mmHg 47%
04:00 +11°C° 0 mm 1 m/S 612 mmHg 49%
05:00 +10°C° 0 mm 1 m/S 611 mmHg 51%
06:00 +12°C° 0 mm 1 m/S 613 mmHg 43%
07:00 +15°C° 0 mm 1 m/S 614 mmHg 34%
08:00 +17°C° 0 mm 2 m/S 616 mmHg 25%
09:00 +18°C° 0 mm 2 m/S 616 mmHg 23%
10:00 +20°C° 0 mm 3 m/S 616 mmHg 20%
11:00 +21°C° 0 mm 3 m/S 617 mmHg 18%
12:00 +22°C° 0 mm 4 m/S 616 mmHg 17%
13:00 +23°C° 0 mm 4 m/S 616 mmHg 15%
14:00 +25°C° 0 mm 5 m/S 615 mmHg 14%
15:00 +23°C° 0 mm 6 m/S 615 mmHg 14%
16:00 +22°C° 0 mm 7 m/S 615 mmHg 14%
17:00 +21°C° 0 mm 8 m/S 614 mmHg 15%
18:00 +17°C° 0 mm 6 m/S 614 mmHg 16%
19:00 +15°C° 0 mm 5 m/S 614 mmHg 17%
20:00 +12°C° 0 mm 4 m/S 614 mmHg 19%
21:00 +11°C° 0 mm 3 m/S 613 mmHg 21%
22:00 +9°C° 0 mm 2 m/S 613 mmHg 24%
23:00 +8°C° 0 mm 1 m/S 612 mmHg 27%

6 März, Samstag

Zeit Temperatur Niederschläge Wind Luftdruck Luftfeuchtigkeit
00:00 +8°C° 0 mm 1 m/S 612 mmHg 28%
01:00 +8°C° 0 mm 1 m/S 612 mmHg 29%
02:00 +8°C° 0 mm 1 m/S 612 mmHg 30%
03:00 +7°C° 0 mm 1 m/S 611 mmHg 34%
04:00 +6°C° 0 mm 1 m/S 611 mmHg 38%
05:00 +5°C° 0 mm 0 m/S 611 mmHg 41%
06:00 +7°C° 0 mm 0 m/S 612 mmHg 37%
07:00 +10°C° 0 mm 1 m/S 614 mmHg 32%
08:00 +13°C° 0 mm 1 m/S 615 mmHg 27%
09:00 +15°C° 0 mm 1 m/S 615 mmHg 24%
10:00 +18°C° 0 mm 1 m/S 615 mmHg 20%
11:00 +20°C° 0 mm 2 m/S 616 mmHg 17%
12:00 +23°C° 0 mm 2 m/S 615 mmHg 15%
13:00 +25°C° 0 mm 2 m/S 615 mmHg 13%
14:00 +26°C° 0 mm 2 m/S 614 mmHg 12%
15:00 +26°C° 0 mm 3 m/S 614 mmHg 12%
16:00 +26°C° 0 mm 4 m/S 614 mmHg 13%
17:00 +25°C° 0 mm 5 m/S 613 mmHg 14%
18:00 +21°C° 0 mm 3 m/S 612 mmHg 23%
19:00 +17°C° 0 mm 2 m/S 611 mmHg 32%
20:00 +13°C° 0 mm 1 m/S 610 mmHg 42%
21:00 +13°C° 0 mm 1 m/S 611 mmHg 38%
22:00 +14°C° 0 mm 2 m/S 611 mmHg 35%
23:00 +13°C° 0 mm 3 m/S 612 mmHg 31%

7 März, Sonntag

Zeit Temperatur Niederschläge Wind Luftdruck Luftfeuchtigkeit
00:00 +13°C° 0 mm 2 m/S 611 mmHg 37%
01:00 +12°C° 0 mm 2 m/S 611 mmHg 43%
02:00 +10°C° 0 mm 2 m/S 610 mmHg 49%
03:00 +9°C° 0 mm 1 m/S 610 mmHg 55%
04:00 +8°C° 0 mm 1 m/S 609 mmHg 60%
05:00 +6°C° 0 mm 0 m/S 609 mmHg 66%
06:00 +9°C° 0 mm 0 m/S 611 mmHg 57%
07:00 +11°C° 0 mm 0 m/S 612 mmHg 48%
08:00 +13°C° 0 mm 0 m/S 614 mmHg 39%
09:00 +18°C° 0 mm 1 m/S 614 mmHg 34%
10:00 +19°C° 0 mm 2 m/S 615 mmHg 28%
11:00 +23°C° 0 mm 2 m/S 616 mmHg 23%
12:00 +24°C° 0 mm 3 m/S 615 mmHg 20%
13:00 +26°C° 0 mm 4 m/S 615 mmHg 18%
14:00 +27°C° 0 mm 4 m/S 615 mmHg 16%
15:00 +26°C° 0 mm 5 m/S 615 mmHg 18%
16:00 +25°C° 0 mm 5 m/S 614 mmHg 20%
17:00 +23°C° 0 mm 5 m/S 614 mmHg 22%
18:00 +20°C° 0 mm 4 m/S 614 mmHg 30%
19:00 +16°C° 0 mm 3 m/S 613 mmHg 38%
20:00 +13°C° 0 mm 2 m/S 613 mmHg 46%
21:00 +12°C° 0 mm 2 m/S 613 mmHg 51%
22:00 +11°C° 0 mm 1 m/S 613 mmHg 55%
23:00 +10°C° 0 mm 1 m/S 613 mmHg 60%

8 März, Montag

Zeit Temperatur Niederschläge Wind Luftdruck Luftfeuchtigkeit
00:00 +8°C° 0 mm 0 m/S 612 mmHg 63%
01:00 +7°C° 0 mm 0 m/S 612 mmHg 66%
02:00 +7°C° 0 mm 0 m/S 612 mmHg 69%
03:00 +6°C° 0 mm 0 m/S 612 mmHg 70%
04:00 +6°C° 0 mm 0 m/S 612 mmHg 71%
05:00 +6°C° 0 mm 0 m/S 612 mmHg 72%
06:00 +9°C° 0 mm 0 m/S 613 mmHg 61%
07:00 +12°C° 0 mm 0 m/S 615 mmHg 50%
08:00 +15°C° 0 mm 1 m/S 616 mmHg 40%
09:00 +19°C° 0 mm 1 m/S 617 mmHg 33%
10:00 +21°C° 0 mm 1 m/S 617 mmHg 26%
11:00 +24°C° 0 mm 1 m/S 618 mmHg 19%
12:00 +26°C° 0 mm 1 m/S 617 mmHg 16%
13:00 +27°C° 0 mm 1 m/S 617 mmHg 13%
14:00 +28°C° 0 mm 2 m/S 617 mmHg 10%
15:00 +28°C° 0 mm 2 m/S 616 mmHg 11%
16:00 +28°C° 0 mm 3 m/S 616 mmHg 11%
17:00 +28°C° 0 mm 4 m/S 616 mmHg 12%
18:00 +24°C° 0 mm 3 m/S 615 mmHg 22%
19:00 +19°C° 0 mm 3 m/S 614 mmHg 33%
20:00 +15°C° 0 mm 2 m/S 613 mmHg 43%
21:00 +14°C° 0 mm 2 m/S 613 mmHg 44%
22:00 +13°C° 0 mm 2 m/S 614 mmHg 44%
23:00 +13°C° 0 mm 2 m/S 614 mmHg 45%
Mehr zeigen

Wir brauchen deine Erlaubnis

Meteoprog und unser Service Anbieter werden persönliche Daten aufbewahren, so wie Cookies, Geräte Bezeichnung oder ähnliche Technologien von deinem Gerät und Prozess, so wie Persönliche Daten Inhalte und Werbungen, genauso wie social Media und den Verkehr zu analysieren.

  • Aufbewahrung und/oder Zugang zu deiner Geräte Informationen.

    Cookies, Geräte Bezeichnung oder andere Informationen, können aufbewahrt oder Zugang zu deinem Gerät erhalten, für den Grund, der oben angegeben wird.

  • Personalisierte Werbung und Inhalte, Messungen, Einblick in das Publikum und Produkt Entwicklung.

    Werbungen und Inhalte können personalisiert werden, basierend auf ein Profil. Mehr Daten können besser personalisierte Werbungen und Inhalte hinzufügen. Werbung und Inhalte können gezeigt und gemessen werden. Einblicke über das Publikum, welche die Werbung gesehen haben und den Inhalt, können abgeleitet werden. So wie Daten können genutzt werden, um es zu verbessern oder die Benutzer Erfahrung zu verbessern das System und die Software.

Wenn du “Ich stimme zu” klickst, erlaubst du uns, die Cookies zu benutzen die Geräte Bezeichnung, den Web oder ähnliche Technologien zu benutzen. Deine Settings, können in deinem Gerät bei deinem Browser geändert werden.

Für den bestimmten Zweck, berechtigten Interessen beruhen darauf, mehr als auf den Inhalt. Du kannst mehr darüber in unseren Privaten und Cookie Politik lesen.